Volver al catálogo

STARLINK-33739

ActivoComunicacionesVLEO
NORAD 63572·PAYLOAD·🇺🇸 United States

Lanzado Apr 14, 2025 desde Cape Canaveral Space Force Station

Loading…

Próximos Pases (próximas 24 horas)

TLE

ActualizadoSource: CelesTrak SupGP

Época: Sep 14, 2026, 21:09 UTC

1 63572C 25076D   26257.88173611  .00083314  00000+0  30164-2 0  2571
2 63572  43.0013 333.5821 0001352 278.3533 345.4592 15.27550114    17

Sigue STARLINK-33739 en tiempo real con AllMySat

Download on the App Store